SCP
0 0 0 0 0 0 0 0 0 0 0 0 0 0 0 0 0 -0 -0 -0 -0 -0 0 0 0 0 0 0 -0 -0 -0 -0 -0 -0 -0 -0 0 0 0 0 0 0 0 0
0 0 0 0 0 0 0 0 0 0 0 0 0 0 0 0 -0 -0 -0 0 0 0 0 0 0 0 0 0 0 0 -0 -0 -0 -0 -0 -0 -0 0 0 0 0 0 0 0
0 0 0 0 0 0 0 0 0 0 0 0 0 0 0 0 0 0 0 0 0 0 0 0 0 0 0 0 0 0 0 -0 -0 -0 -0 0 0 0 0 0 0 0 0 0
0 0 0 0 0 0 0 0 0 0 0 0 0 0 0 0 0 0 0 0 0 0 0 0 0 0 0 0 0 0 0 0 -0 -0 -0 -0 -0 0 0 0 0 0 0 0
0 0 0 0 0 0 0 0 0 0 0 0 0 0 0 0 0 0 0 0 0 0 0 0 0 0 0 0 0 0 0 0 0 0 0 0 0 -0 -0 -0 0 0 0 0
0 0 0 0 0 0 0 0 0 0 0 0 0 0 0 0 0 0 0 0 0 0 0 0 0 0 0 0 0 0 0 0 0 0 0 0 0 0 0 0 0 0 0 0
0 0 0 0 0 0 0 0 0 0 0 0 0 0 0 0 0 0 0 0 0 0 0 0 0 0 0 0 0 0 0 0 0 0 0 0 0 0 0 0 0 0 0 0
0 0 0 0 0 0 0 0 0 0 0 0 0 0 0 0 0 0 0 0 0 0 0 0 0 0 0 0 0 0 0 0 0 0 0 0 0 0 0 0 0 0 0 0
0 0 0 0 0 0 0 0 0 0 0 0 0 0 0 0 0 0 0 0 0 0 0 0 0 0 0 0 0 0 0 0 0 0 0 0 0 0 0 0 0 0 0 0
0 0 0 0 0 0 0 0 0 0 0 0 0 0 0 0 0 0 0 0 0 0 0 0 0 0 0 0 0 0 0 0 0 0 0 0 0 0 0 0 0 0 0 0
0 0 0 0 0 0 0 0 0 0 0 0 0 0 0 0 0 0 0 0 0 0 0 0 0 0 0 0 0 0 0 0 0 0 0 0 0 0 0 0 0 0 0 0
0 0 0 0 0 0 0 0 0 0 0 0 0 0 0 0 0 0 0 0 0 0 0 0 0 0 0 0 0 0 0 0 0 0 0 0 0 0 0 0 0 0 0 0
0 0 0 0 0 0 0 0 0 0 0 0 0 0 0 0 0 0 0 0 0 0 0 0 0 0 0 0 0 0 0 0 0 0 0 0 0 0 0 0 0 0 0 0
0 0 0 0 0 0 0 0 0 0 0 0 0 0 0 0 0 0 0 0 0 0 0 0 0 0 0 0 0 0 0 0 0 0 0 0 0 0 0 0 0 0 0 0
0 0 0 0 0 0 0 0 0 0 0 0 0 0 0 0 0 0 0 0 0 0 0 0 0 0 0 0 0 0 0 0 0 0 0 0 0 0 0 0 0 0 0 0
0 0 0 0 0 0 0 0 0 0 0 0 0 0 0 0 0 0 0 0 0 0 0 0 0 0 0 0 0 0 0 0 0 0 0 0 0 0 0 0 0 0 0 0
0 0 0 0 0 0 0 0 0 0 0 0 0 0 0 0 0 0 0 0 0 0 0 0 0 0 0 0 0 0 0 0 0 0 0 0 0 0 0 0 0 0 0 0
0 0 0 0 0 0 0 0 0 0 0 0 0 0 0 0 0 0 0 0 0 0 0 0 0 0 0 0 0 0 0 0 0 0 0 0 0 0 0 0 0 0 0 0
0 0 0 0 0 0 0 0 0 0 0 0 0 0 0 0 0 0 0 0 0 0 0 0 0 0 0 0 0 0 0 0 0 0 0 0 0 0 0 0 0 0 0 0
0 0 0 0 0 0 0 0 0 0 0 0 0 0 0 0 0 0 0 0 0 0 0 0 0 0 0 0 0 0 0 0 0 0 0 0 0 0 0 0 0 0 0 0
0 0 0 0 0 0 0 0 0 0 0 0 0 0 0 0 0 0 0 0 0 0 0 0 0 0 0 0 0 0 0 0 0 0 0 0 0 0 0 0 0 0 0 0
0 0 0 0 0 0 0 0 0 0 0 0 0 0 0 0 0 0 0 0 0 0 0 0 0 0 0 0 0 0 0 0 0 0 0 0 0 0 0 0 0 0 0 0
0 0 0 0 0 0 0 0 0 0 0 0 0 0 0 0 0 0 0 0 0 0 0 0 0 0 0 0 0 0 0 0 0 0 0 0 0 0 0 0 0 0 0 0
0 0 0 0 0 0 0 0 0 0 0 0 0 0 0 0 0 0 0 0 0 0 0 0 0 0 0 0 0 0 0 0 0 0 0 0 0 0 0 0 0 0 0 0
0 0 0 0 0 0 0 0 0 0 0 0 0 0 0 0 0 0 0 0 0 0 0 0 0 0 0 0 0 0 0 0 0 0 0 0 0 0 0 0 0 0 0 0
0 0 0 0 0 0 0 0 0 0 0 0 0 0 0 0 0 0 0 0 0 0 0 0 0 0 0 0 0 0 0 0 0 0 0 0 0 0 0 0 0 0 0 0
0 0 0 0 0 0 0 0 0 0 0 0 0 0 0 0 0 0 0 0 0 0 0 0 0 0 0 0 0 0 0 0 0 0 0 0 0 0 0 0 0 0 0 0
Wind_Speed_500mb
8 9 6 6 14 17 20 27 20 19 21 36 28 15 30 21 19 17 14 14 17 23 27 30 33 38 41 46 51 55 59 61 60 57 56 57 56 55 56 55 55 57 62 66
6 0 10 3 11 14 3 4 2 6 8 12 9 29 25 22 19 15 14 15 18 22 26 31 36 39 43 46 49 55 59 60 63 65 66 65 63 61 62 63 64 64 63 65
9 5 10 11 24 17 10 8 13 15 12 15 7 11 13 15 10 9 10 11 16 21 25 28 33 38 40 42 45 47 52 56 60 64 67 68 70 70 67 65 66 68 69 72
4 4 6 7 8 6 15 8 16 6 10 18 20 20 18 15 14 9 2 7 12 17 21 25 31 37 40 46 51 55 58 62 66 70 74 77 78 77 76 73 72 72 71 68
7 5 9 6 9 14 15 17 24 17 17 21 23 17 12 20 17 6 5 12 16 19 21 25 30 35 39 42 46 50 54 57 62 67 74 77 78 82 84 86 85 80 74 74
7 9 15 9 4 16 12 10 9 25 23 32 28 6 7 33 11 12 17 16 15 19 21 25 29 34 41 46 51 53 56 59 62 66 70 75 78 80 81 82 86 83 80 73
5 5 15 12 11 12 13 13 6 16 31 37 9 11 16 22 13 21 17 17 22 27 29 31 36 42 46 51 54 57 61 63 63 67 71 73 78 80 81 79 78 77 76 69
6 5 17 27 8 18 8 10 19 26 24 20 16 10 3 5 11 14 19 25 31 33 33 36 42 47 51 55 60 63 66 68 68 68 70 71 75 77 78 76 75 75 72 69
15 11 3 39 8 15 17 36 26 25 19 9 1 5 12 18 22 24 29 34 34 38 40 41 47 53 57 61 65 66 67 67 67 69 69 70 74 75 74 71 70 70 69 68
6 6 10 34 16 24 29 36 28 20 12 7 15 21 29 32 33 34 37 38 40 42 46 50 55 60 63 66 67 69 67 65 68 69 68 68 68 68 67 63 62 59 60 59
5 4 18 21 27 39 38 30 20 11 8 13 22 28 36 42 40 41 39 39 43 47 55 60 64 68 66 67 68 68 69 68 67 66 65 66 64 61 62 56 53 54 46 40
9 34 13 32 44 38 34 28 19 15 17 23 30 36 41 46 48 49 48 48 50 59 65 67 68 71 69 67 67 68 73 72 70 69 63 61 58 55 48 45 40 36 31 27
13 35 20 18 42 43 37 30 21 21 28 29 33 36 40 45 48 52 56 60 62 64 65 68 71 69 69 72 70 69 70 70 71 69 62 52 46 41 39 32 32 29 25 19
29 32 21 36 38 44 33 26 24 27 30 33 34 36 39 44 50 55 59 63 67 71 73 72 75 72 67 72 73 71 67 66 65 64 57 46 38 34 29 26 27 23 15 9
42 40 41 37 41 33 33 30 34 34 34 33 35 37 45 55 61 64 66 69 73 74 73 73 74 71 70 70 70 69 65 64 60 56 49 39 32 29 27 27 27 22 15 8
45 48 46 40 38 39 43 46 42 38 36 37 40 48 52 54 58 63 68 69 74 76 70 69 67 64 64 64 64 63 59 57 57 51 40 33 27 30 30 30 27 21 18 14
52 53 57 57 56 57 51 42 39 38 37 41 47 46 47 54 61 65 66 64 65 65 63 63 63 61 60 59 60 58 55 49 45 40 34 32 31 33 32 28 25 20 15 12
57 64 66 63 61 55 49 46 41 39 42 42 41 43 47 53 60 65 65 65 61 57 54 57 55 56 54 53 52 50 47 42 36 32 30 29 31 32 31 29 25 20 16 15
65 64 61 60 53 46 43 42 42 39 38 37 36 40 45 49 56 61 62 61 60 61 51 50 48 47 46 44 45 41 38 35 31 28 25 27 29 31 31 29 26 22 18 15
75 73 66 57 51 45 42 41 37 33 34 33 36 39 42 44 48 51 53 52 52 51 47 43 41 40 38 37 36 34 31 28 25 23 22 23 26 28 28 27 24 21 18 15
78 68 62 59 52 45 41 36 32 29 29 31 33 37 40 39 41 42 43 42 39 38 36 33 32 31 30 28 27 23 21 20 19 19 18 19 22 24 24 23 22 19 16 11
74 70 62 53 44 38 33 28 23 21 24 28 32 33 33 34 34 33 32 30 28 28 28 27 27 26 25 22 20 17 14 14 13 13 14 15 17 18 18 17 16 13 11 17
63 55 48 43 37 31 24 18 16 17 20 23 26 27 27 27 27 25 22 25 24 25 25 25 25 23 21 19 16 14 13 11 11 11 12 13 15 16 16 13 12 17 22 25
50 47 42 36 28 21 15 12 12 14 17 18 20 21 21 21 22 20 19 20 22 23 24 24 23 21 20 20 18 16 15 14 14 14 15 16 17 17 17 17 21 27 32 36
44 41 35 29 24 19 16 12 10 11 12 13 15 17 17 16 16 18 18 21 21 21 21 22 22 21 21 21 22 21 21 21 21 21 22 23 24 25 27 31 35 38 42 46
42 37 33 27 21 16 12 10 10 9 9 10 11 12 12 12 13 15 15 16 18 20 21 22 24 24 25 26 26 27 28 28 28 29 30 31 33 34 37 41 44 47 48 47
37 30 26 21 17 14 12 10 10 8 8 8 9 8 9 9 12 14 17 19 20 21 23 25 26 27 28 30 30 32 33 33 34 36 38 40 41 43 45 46 46 45 42 39
Wind_Direction_500mb
52 75 106 147 171 176 193 214 191 214 186 200 198 186 174 157 142 122 98 69 38 18 11 2 356 355 350 346 342 340 340 338 337 338 339 336 331 328 324 320 316 311 305 299
146 236 50 154 203 180 186 161 148 171 241 222 161 140 156 164 153 124 87 52 28 9 357 352 348 343 338 334 333 334 334 335 334 331 329 328 329 327 323 322 321 318 314 309
201 55 80 281 221 183 176 191 148 212 184 154 157 176 184 175 148 111 79 33 7 357 347 339 334 331 329 327 328 329 329 331 330 328 328 329 326 322 320 320 316 313 314 313
138 109 196 277 17 126 188 196 224 184 160 170 177 187 186 182 167 147 101 342 334 326 321 318 319 321 322 323 324 325 325 327 327 326 325 324 321 321 321 319 315 313 311 309
153 209 316 258 200 163 169 244 215 207 160 169 157 166 208 188 158 126 332 307 303 305 310 313 317 318 320 322 322 321 322 324 325 325 323 322 321 319 318 316 316 316 312 307
141 159 207 224 231 156 123 279 208 195 161 155 149 151 251 182 182 325 315 303 303 308 312 318 321 321 320 319 317 316 316 318 318 318 317 316 316 315 314 314 313 312 312 312
184 190 286 242 200 167 106 237 161 164 151 150 135 136 107 177 256 296 290 286 297 301 304 309 311 314 315 315 313 313 312 312 313 314 315 315 315 314 312 313 312 311 309 309
126 114 259 178 133 167 181 121 134 125 129 131 127 134 161 271 293 290 274 289 300 299 304 308 310 311 310 310 309 309 309 310 310 310 311 312 313 313 312 312 312 312 312 312
182 205 188 172 132 181 160 146 144 146 138 141 155 307 313 315 309 304 298 299 299 300 305 310 309 307 306 307 307 307 307 309 309 310 310 311 312 312 311 312 312 313 314 314
113 187 191 175 142 155 159 153 150 161 182 247 295 309 309 308 308 301 297 295 291 292 299 307 307 305 304 304 304 304 305 307 311 312 311 311 311 311 311 312 311 314 316 313
261 117 131 176 181 170 165 166 166 184 240 284 294 299 300 301 301 298 296 292 290 291 300 305 306 305 304 303 300 300 302 304 308 311 312 312 310 311 311 313 313 317 318 315
214 171 158 187 182 179 186 194 218 256 280 286 288 290 291 293 294 293 293 294 294 299 301 301 301 301 302 299 299 302 302 303 305 307 308 308 307 311 310 312 316 318 315 317
165 172 172 183 198 205 213 224 238 269 276 278 285 289 292 294 295 296 296 298 300 300 300 300 301 302 305 303 303 302 301 300 301 304 305 303 301 304 305 304 305 316 313 322
202 189 180 192 203 213 216 227 257 271 275 280 283 286 289 293 295 296 297 297 297 297 299 299 298 299 298 298 300 300 298 296 298 299 299 296 294 296 290 292 291 291 291 315
213 223 235 238 220 210 219 247 262 261 264 268 274 278 288 293 294 296 297 297 297 298 298 296 296 298 295 296 297 297 296 295 294 294 291 285 283 283 277 277 274 268 255 264
211 214 221 221 220 235 253 255 249 252 257 265 274 284 289 293 296 299 301 302 300 300 300 298 298 298 297 297 296 295 294 293 293 292 283 273 270 269 267 267 262 258 259 245
207 208 215 225 234 248 245 245 246 250 258 269 277 282 288 294 297 299 299 299 299 299 299 299 299 300 300 297 296 296 294 293 289 283 275 269 268 262 257 254 246 246 243 226
239 244 241 245 249 240 238 239 245 253 263 268 273 284 292 296 299 299 299 299 298 297 298 296 297 298 298 297 297 296 294 292 287 279 271 268 262 253 246 238 236 232 223 219
227 227 230 234 232 226 226 237 246 251 257 269 283 292 296 300 300 299 299 300 301 302 303 300 300 300 299 298 296 294 292 289 285 277 267 256 249 240 233 229 227 224 220 213
215 214 216 218 218 226 237 241 244 253 267 282 291 297 301 302 301 300 300 301 302 302 304 304 303 304 303 301 299 297 292 287 282 273 261 249 240 232 225 224 222 221 217 211
208 208 212 216 222 231 236 236 244 258 274 286 296 300 303 304 303 301 301 302 303 302 304 308 310 308 308 307 305 300 293 284 274 263 249 236 229 225 222 221 219 217 218 224
203 207 212 218 224 226 225 234 248 269 285 294 297 299 302 303 302 302 303 305 307 310 311 313 313 312 310 308 307 303 292 275 260 243 229 220 216 212 209 211 217 226 246 255
203 206 208 210 209 211 220 233 253 272 284 291 296 299 302 302 300 300 303 302 303 308 310 309 310 313 306 304 304 299 287 273 257 241 228 217 213 213 216 223 244 259 265 271
192 191 189 191 194 200 212 237 257 275 285 294 296 298 301 302 302 302 306 304 301 304 304 303 308 308 300 296 294 290 283 275 266 258 251 246 244 244 248 255 264 271 276 281
175 177 175 178 184 192 205 222 246 267 278 286 295 299 301 303 302 300 301 301 302 306 305 302 304 300 295 292 291 290 287 284 280 276 273 270 269 271 273 275 278 281 283 284
165 165 168 171 176 184 195 217 232 247 261 269 285 295 300 307 309 306 303 301 304 304 304 301 301 301 300 296 293 291 289 287 286 284 282 282 283 284 284 283 283 283 284 285
160 156 158 164 173 185 198 212 226 238 248 261 269 282 290 298 301 302 300 301 302 302 301 299 298 297 296 293 292 291 290 292 293 291 290 289 287 287 285 284 284 284 284 283
Wind_Speed_850mb
8 9 6 6 14 17 20 27 20 19 21 36 28 15 30 21 19 17 14 14 17 23 27 30 33 38 41 46 51 55 59 61 60 57 56 57 56 55 56 55 55 57 62 66
6 0 10 3 11 14 3 4 2 6 8 12 9 29 25 22 19 15 14 15 18 22 26 31 36 39 43 46 49 55 59 60 63 65 66 65 63 61 62 63 64 64 63 65
9 5 10 11 24 17 10 8 13 15 12 15 7 11 13 15 10 9 10 11 16 21 25 28 33 38 40 42 45 47 52 56 60 64 67 68 70 70 67 65 66 68 69 72
4 4 6 7 8 6 15 8 16 6 10 18 20 20 18 15 14 9 2 7 12 17 21 25 31 37 40 46 51 55 58 62 66 70 74 77 78 77 76 73 72 72 71 68
7 5 9 6 9 14 15 17 24 17 17 21 23 17 12 20 17 6 5 12 16 19 21 25 30 35 39 42 46 50 54 57 62 67 74 77 78 82 84 86 85 80 74 74
7 9 15 9 4 16 12 10 9 25 23 32 28 6 7 33 11 12 17 16 15 19 21 25 29 34 41 46 51 53 56 59 62 66 70 75 78 80 81 82 86 83 80 73
5 5 15 12 11 12 13 13 6 16 31 37 9 11 16 22 13 21 17 17 22 27 29 31 36 42 46 51 54 57 61 63 63 67 71 73 78 80 81 79 78 77 76 69
6 5 17 27 8 18 8 10 19 26 24 20 16 10 3 5 11 14 19 25 31 33 33 36 42 47 51 55 60 63 66 68 68 68 70 71 75 77 78 76 75 75 72 69
15 11 3 39 8 15 17 36 26 25 19 9 1 5 12 18 22 24 29 34 34 38 40 41 47 53 57 61 65 66 67 67 67 69 69 70 74 75 74 71 70 70 69 68
6 6 10 34 16 24 29 36 28 20 12 7 15 21 29 32 33 34 37 38 40 42 46 50 55 60 63 66 67 69 67 65 68 69 68 68 68 68 67 63 62 59 60 59
5 4 18 21 27 39 38 30 20 11 8 13 22 28 36 42 40 41 39 39 43 47 55 60 64 68 66 67 68 68 69 68 67 66 65 66 64 61 62 56 53 54 46 40
9 34 13 32 44 38 34 28 19 15 17 23 30 36 41 46 48 49 48 48 50 59 65 67 68 71 69 67 67 68 73 72 70 69 63 61 58 55 48 45 40 36 31 27
13 35 20 18 42 43 37 30 21 21 28 29 33 36 40 45 48 52 56 60 62 64 65 68 71 69 69 72 70 69 70 70 71 69 62 52 46 41 39 32 32 29 25 19
29 32 21 36 38 44 33 26 24 27 30 33 34 36 39 44 50 55 59 63 67 71 73 72 75 72 67 72 73 71 67 66 65 64 57 46 38 34 29 26 27 23 15 9
42 40 41 37 41 33 33 30 34 34 34 33 35 37 45 55 61 64 66 69 73 74 73 73 74 71 70 70 70 69 65 64 60 56 49 39 32 29 27 27 27 22 15 8
45 48 46 40 38 39 43 46 42 38 36 37 40 48 52 54 58 63 68 69 74 76 70 69 67 64 64 64 64 63 59 57 57 51 40 33 27 30 30 30 27 21 18 14
52 53 57 57 56 57 51 42 39 38 37 41 47 46 47 54 61 65 66 64 65 65 63 63 63 61 60 59 60 58 55 49 45 40 34 32 31 33 32 28 25 20 15 12
57 64 66 63 61 55 49 46 41 39 42 42 41 43 47 53 60 65 65 65 61 57 54 57 55 56 54 53 52 50 47 42 36 32 30 29 31 32 31 29 25 20 16 15
65 64 61 60 53 46 43 42 42 39 38 37 36 40 45 49 56 61 62 61 60 61 51 50 48 47 46 44 45 41 38 35 31 28 25 27 29 31 31 29 26 22 18 15
75 73 66 57 51 45 42 41 37 33 34 33 36 39 42 44 48 51 53 52 52 51 47 43 41 40 38 37 36 34 31 28 25 23 22 23 26 28 28 27 24 21 18 15
78 68 62 59 52 45 41 36 32 29 29 31 33 37 40 39 41 42 43 42 39 38 36 33 32 31 30 28 27 23 21 20 19 19 18 19 22 24 24 23 22 19 16 11
74 70 62 53 44 38 33 28 23 21 24 28 32 33 33 34 34 33 32 30 28 28 28 27 27 26 25 22 20 17 14 14 13 13 14 15 17 18 18 17 16 13 11 17
63 55 48 43 37 31 24 18 16 17 20 23 26 27 27 27 27 25 22 25 24 25 25 25 25 23 21 19 16 14 13 11 11 11 12 13 15 16 16 13 12 17 22 25
50 47 42 36 28 21 15 12 12 14 17 18 20 21 21 21 22 20 19 20 22 23 24 24 23 21 20 20 18 16 15 14 14 14 15 16 17 17 17 17 21 27 32 36
44 41 35 29 24 19 16 12 10 11 12 13 15 17 17 16 16 18 18 21 21 21 21 22 22 21 21 21 22 21 21 21 21 21 22 23 24 25 27 31 35 38 42 46
42 37 33 27 21 16 12 10 10 9 9 10 11 12 12 12 13 15 15 16 18 20 21 22 24 24 25 26 26 27 28 28 28 29 30 31 33 34 37 41 44 47 48 47
37 30 26 21 17 14 12 10 10 8 8 8 9 8 9 9 12 14 17 19 20 21 23 25 26 27 28 30 30 32 33 33 34 36 38 40 41 43 45 46 46 45 42 39
Wind_Direction_850mb
52 75 106 147 171 176 193 214 191 214 186 200 198 186 174 157 142 122 98 69 38 18 11 2 356 355 350 346 342 340 340 338 337 338 339 336 331 328 324 320 316 311 305 299
146 236 50 154 203 180 186 161 148 171 241 222 161 140 156 164 153 124 87 52 28 9 357 352 348 343 338 334 333 334 334 335 334 331 329 328 329 327 323 322 321 318 314 309
201 55 80 281 221 183 176 191 148 212 184 154 157 176 184 175 148 111 79 33 7 357 347 339 334 331 329 327 328 329 329 331 330 328 328 329 326 322 320 320 316 313 314 313
138 109 196 277 17 126 188 196 224 184 160 170 177 187 186 182 167 147 101 342 334 326 321 318 319 321 322 323 324 325 325 327 327 326 325 324 321 321 321 319 315 313 311 309
153 209 316 258 200 163 169 244 215 207 160 169 157 166 208 188 158 126 332 307 303 305 310 313 317 318 320 322 322 321 322 324 325 325 323 322 321 319 318 316 316 316 312 307
141 159 207 224 231 156 123 279 208 195 161 155 149 151 251 182 182 325 315 303 303 308 312 318 321 321 320 319 317 316 316 318 318 318 317 316 316 315 314 314 313 312 312 312
184 190 286 242 200 167 106 237 161 164 151 150 135 136 107 177 256 296 290 286 297 301 304 309 311 314 315 315 313 313 312 312 313 314 315 315 315 314 312 313 312 311 309 309
126 114 259 178 133 167 181 121 134 125 129 131 127 134 161 271 293 290 274 289 300 299 304 308 310 311 310 310 309 309 309 310 310 310 311 312 313 313 312 312 312 312 312 312
182 205 188 172 132 181 160 146 144 146 138 141 155 307 313 315 309 304 298 299 299 300 305 310 309 307 306 307 307 307 307 309 309 310 310 311 312 312 311 312 312 313 314 314
113 187 191 175 142 155 159 153 150 161 182 247 295 309 309 308 308 301 297 295 291 292 299 307 307 305 304 304 304 304 305 307 311 312 311 311 311 311 311 312 311 314 316 313
261 117 131 176 181 170 165 166 166 184 240 284 294 299 300 301 301 298 296 292 290 291 300 305 306 305 304 303 300 300 302 304 308 311 312 312 310 311 311 313 313 317 318 315
214 171 158 187 182 179 186 194 218 256 280 286 288 290 291 293 294 293 293 294 294 299 301 301 301 301 302 299 299 302 302 303 305 307 308 308 307 311 310 312 316 318 315 317
165 172 172 183 198 205 213 224 238 269 276 278 285 289 292 294 295 296 296 298 300 300 300 300 301 302 305 303 303 302 301 300 301 304 305 303 301 304 305 304 305 316 313 322
202 189 180 192 203 213 216 227 257 271 275 280 283 286 289 293 295 296 297 297 297 297 299 299 298 299 298 298 300 300 298 296 298 299 299 296 294 296 290 292 291 291 291 315
213 223 235 238 220 210 219 247 262 261 264 268 274 278 288 293 294 296 297 297 297 298 298 296 296 298 295 296 297 297 296 295 294 294 291 285 283 283 277 277 274 268 255 264
211 214 221 221 220 235 253 255 249 252 257 265 274 284 289 293 296 299 301 302 300 300 300 298 298 298 297 297 296 295 294 293 293 292 283 273 270 269 267 267 262 258 259 245
207 208 215 225 234 248 245 245 246 250 258 269 277 282 288 294 297 299 299 299 299 299 299 299 299 300 300 297 296 296 294 293 289 283 275 269 268 262 257 254 246 246 243 226
239 244 241 245 249 240 238 239 245 253 263 268 273 284 292 296 299 299 299 299 298 297 298 296 297 298 298 297 297 296 294 292 287 279 271 268 262 253 246 238 236 232 223 219
227 227 230 234 232 226 226 237 246 251 257 269 283 292 296 300 300 299 299 300 301 302 303 300 300 300 299 298 296 294 292 289 285 277 267 256 249 240 233 229 227 224 220 213
215 214 216 218 218 226 237 241 244 253 267 282 291 297 301 302 301 300 300 301 302 302 304 304 303 304 303 301 299 297 292 287 282 273 261 249 240 232 225 224 222 221 217 211
208 208 212 216 222 231 236 236 244 258 274 286 296 300 303 304 303 301 301 302 303 302 304 308 310 308 308 307 305 300 293 284 274 263 249 236 229 225 222 221 219 217 218 224
203 207 212 218 224 226 225 234 248 269 285 294 297 299 302 303 302 302 303 305 307 310 311 313 313 312 310 308 307 303 292 275 260 243 229 220 216 212 209 211 217 226 246 255
203 206 208 210 209 211 220 233 253 272 284 291 296 299 302 302 300 300 303 302 303 308 310 309 310 313 306 304 304 299 287 273 257 241 228 217 213 213 216 223 244 259 265 271
192 191 189 191 194 200 212 237 257 275 285 294 296 298 301 302 302 302 306 304 301 304 304 303 308 308 300 296 294 290 283 275 266 258 251 246 244 244 248 255 264 271 276 281
175 177 175 178 184 192 205 222 246 267 278 286 295 299 301 303 302 300 301 301 302 306 305 302 304 300 295 292 291 290 287 284 280 276 273 270 269 271 273 275 278 281 283 284
165 165 168 171 176 184 195 217 232 247 261 269 285 295 300 307 309 306 303 301 304 304 304 301 301 301 300 296 293 291 289 287 286 284 282 282 283 284 284 283 283 283 284 285
160 156 158 164 173 185 198 212 226 238 248 261 269 282 290 298 301 302 300 301 302 302 301 299 298 297 296 293 292 291 290 292 293 291 290 289 287 287 285 284 284 284 284 283